,,Stat5,,Stat1,,Stat2,,Stat3,,Stat4,,Wind1,,Wind1,
time,status,PA1M_AVG,status,PR1M_SUM,status,RH1M_AVG,status,SR1M_AVG,status,TA1M_AVG,status,W1dAve1m,status,W1sAve1m,
2003-03-12, 00:00:00,VALID,918.446,VALID,0,VALID,89.7498,VALID,-0.0339617,VALID,20.7655,VALID,68,VALID,0.739926,
2003-03-12, 00:01:00,VALID,918.414,VALID,0,VALID,89.5248,VALID,-0.0509425,VALID,20.7491,VALID,81,VALID,0.968973,
2003-03-12, 00:02:00,VALID,918.387,VALID,0,VALID,89.5324,VALID,-0.0339617,VALID,20.772,VALID,92,VALID,1.06172,
2003-03-12, 00:03:00,VALID,918.401,VALID,0,VALID,89.5769,VALID,-0.0169808,VALID,20.7556,VALID,78,VALID,1.33637,
2003-03-12, 00:04:00,VALID,918.433,VALID,0,VALID,89.5426,VALID,0,VALID,20.7424,VALID,70,VALID,1.11719,
2003-03-12, 00:05:00,VALID,918.428,VALID,0,VALID,89.4943,VALID,-0.0339617,VALID,20.7621,VALID,72,VALID,1.18586,
2003-03-12, 00:06:00,VALID,918.425,VALID,0,VALID,89.2577,VALID,-0.0169808,VALID,20.7844,VALID,85,VALID,0.998944,
2003-03-12, 00:07:00,VALID,918.436,VALID,0,VALID,89.0098,VALID,0.0169808,VALID,20.8189,VALID,104,VALID,1.09333,
2003-03-12, 00:08:00,VALID,918.445,VALID,0,VALID,89.2234,VALID,0,VALID,20.8453,VALID,44,VALID,1.74609,
2003-03-12, 00:09:00,VALID,918.452,VALID,0,VALID,89.1738,VALID,0.0169808,VALID,20.8318,VALID,29,VALID,1.67127,
2003-03-12, 00:10:00,VALID,918.475,VALID,0,VALID,88.7364,VALID,0.0169808,VALID,20.8582,VALID,72,VALID,0.94442,
2003-03-12, 00:11:00,VALID,918.48,VALID,0,VALID,88.8012,VALID,0,VALID,20.8978,VALID,129,VALID,0.580592,
2003-03-12, 00:12:00,VALID,918.475,VALID,0,VALID,88.9258,VALID,-0.0339617,VALID,20.9102,VALID,154,VALID,0.591947,
2003-03-12, 00:13:00,VALID,918.484,VALID,0,VALID,89.1992,VALID,0,VALID,20.9105,VALID,101,VALID,0.51727,
2003-03-12, 00:14:00,VALID,918.472,VALID,0,VALID,89.2145,VALID,0,VALID,20.8943,VALID,74,VALID,0.830798,
2003-03-12, 00:15:00,VALID,918.455,VALID,0,VALID,89.2501,VALID,-0.0169808,VALID,20.8647,VALID,101,VALID,0.557736,
2003-03-12, 00:16:00,VALID,918.432,VALID,0,VALID,89.4993,VALID,0.0169808,VALID,20.8515,VALID,112,VALID,0.78766,
2003-03-12, 00:17:00,VALID,918.394,VALID,0,VALID,89.713,VALID,0,VALID,20.8388,VALID,127,VALID,0.892887,
2003-03-12, 00:18:00,VALID,918.379,VALID,0,VALID,88.7593,VALID,0,VALID,20.8162,VALID,107,VALID,1.55268,
2003-03-12, 00:19:00,VALID,918.362,VALID,0,VALID,86.4221,VALID,0,VALID,20.9711,VALID,31,VALID,1.97616,
2003-03-12, 00:20:00,VALID,918.328,VALID,0,VALID,85.9211,VALID,0,VALID,21.2463,VALID,13,VALID,1.50721,
2003-03-12, 00:21:00,VALID,918.342,VALID,0,VALID,86.3394,VALID,0.0169808,VALID,21.3298,VALID,50,VALID,0.818257,
2003-03-12, 00:22:00,VALID,918.36,VALID,0,VALID,86.4806,VALID,0,VALID,21.3368,VALID,104,VALID,1.19243,
2003-03-12, 00:23:00,VALID,918.385,VALID,0,VALID,87.2041,VALID,-0.0169808,VALID,21.3015,VALID,141,VALID,1.33594,
2003-03-12, 00:24:00,VALID,918.406,VALID,0,VALID,87.8374,VALID,-0.0339617,VALID,21.2304,VALID,189,VALID,0.649414,
2003-03-12, 00:25:00,VALID,918.436,VALID,0,VALID,88.1794,VALID,0,VALID,21.1488,VALID,188,VALID,0.703125,
2003-03-12, 00:26:00,VALID,918.455,VALID,0,VALID,88.3028,VALID,0,VALID,21.1006,VALID,137,VALID,0.799696,
2003-03-12, 00:27:00,VALID,918.467,VALID,0,VALID,88.8419,VALID,-0.0169808,VALID,21.0718,VALID,155,VALID,1.52069,
2003-03-12, 00:28:00,VALID,918.472,VALID,0,VALID,89.4714,VALID,0,VALID,20.987,VALID,132,VALID,0.797676,
2003-03-12, 00:29:00,VALID,918.488,VALID,0,VALID,89.5578,VALID,0,VALID,20.9676,VALID,145,VALID,1.17988,
2003-03-12, 00:30:00,VALID,918.483,VALID,0,VALID,89.8071,VALID,0,VALID,20.9196,VALID,124,VALID,1.17628,
2003-03-12, 00:31:00,VALID,918.47,VALID,0,VALID,90.1097,VALID,0,VALID,20.8771,VALID,97,VALID,0.866211,
2003-03-12, 00:32:00,VALID,918.448,VALID,0,VALID,90.3564,VALID,0,VALID,20.8353,VALID,108,VALID,0.915625,
2003-03-12, 00:33:00,VALID,918.411,VALID,0,VALID,90.4174,VALID,0.0339617,VALID,20.7966,VALID,145,VALID,0.954181,
2003-03-12, 00:34:00,VALID,918.374,VALID,0,VALID,90.4861,VALID,0.0339617,VALID,20.7804,VALID,129,VALID,0.926943,
2003-03-12, 00:35:00,VALID,918.347,VALID,0,VALID,90.5853,VALID,0.0169808,VALID,20.7737,VALID,103,VALID,0.586719,
2003-03-12, 00:36:00,VALID,918.317,VALID,0,VALID,90.64,VALID,0.0169808,VALID,20.7573,VALID,138,VALID,0.556473,
2003-03-12, 00:37:00,VALID,918.294,VALID,0,VALID,90.5395,VALID,0,VALID,20.7545,VALID,159,VALID,0.645703,
2003-03-12, 00:38:00,VALID,918.286,VALID,0,VALID,90.4441,VALID,0,VALID,20.7473,VALID,126,VALID,1.40565,
2003-03-12, 00:39:00,VALID,918.296,VALID,0,VALID,90.4327,VALID,0.0169808,VALID,20.7801,VALID,135,VALID,0.61616,
2003-03-12, 00:40:00,VALID,918.303,VALID,0,VALID,90.3958,VALID,0,VALID,20.8,VALID,129,VALID,0.786801,
2003-03-12, 00:41:00,VALID,918.303,VALID,0,VALID,90.1301,VALID,0,VALID,20.8,VALID,173,VALID,0.912861,
2003-03-12, 00:42:00,VALID,918.316,VALID,0,VALID,90.111,VALID,0,VALID,20.8162,VALID,165,VALID,0.637109,
2003-03-12, 00:43:00,VALID,918.325,VALID,0,VALID,90.1911,VALID,0,VALID,20.8224,VALID,162,VALID,0.387458,
2003-03-12, 00:44:00,VALID,918.33,VALID,0,VALID,90.3996,VALID,0,VALID,20.8259,VALID,148,VALID,0.772436,
2003-03-12, 00:45:00,VALID,918.322,VALID,0,VALID,90.4861,VALID,0.0169808,VALID,20.8194,VALID,150,VALID,0.941907,
2003-03-12, 00:46:00,VALID,918.303,VALID,0,VALID,90.6234,VALID,0.0169808,VALID,20.7966,VALID,131,VALID,1.04645,
2003-03-12, 00:47:00,VALID,918.293,VALID,0,VALID,90.7048,VALID,0,VALID,20.7869,VALID,99,VALID,0.679054,
2003-03-12, 00:48:00,VALID,918.272,VALID,0,VALID,90.7519,VALID,0.0169808,VALID,20.7675,VALID,149,VALID,0.802344,
2003-03-12, 00:49:00,VALID,918.226,VALID,0,VALID,90.757,VALID,0.0339617,VALID,20.7411,VALID,155,VALID,1.15005,
2003-03-12, 00:50:00,VALID,918.197,VALID,0,VALID,90.7824,VALID,0,VALID,20.7314,VALID,145,VALID,1.44511,
2003-03-12, 00:51:00,VALID,918.173,VALID,0,VALID,90.7951,VALID,0.0169808,VALID,20.7222,VALID,147,VALID,1.06691,
2003-03-12, 00:52:00,VALID,918.167,VALID,0,VALID,90.9858,VALID,0.0339617,VALID,20.722,VALID,70,VALID,0.457237,
2003-03-12, 00:53:00,VALID,918.157,VALID,0,VALID,90.9719,VALID,0.0169808,VALID,20.7123,VALID,119,VALID,0.969367,
2003-03-12, 00:54:00,VALID,918.148,VALID,0,VALID,90.9782,VALID,0,VALID,20.709,VALID,156,VALID,0.731517,
2003-03-12, 00:55:00,VALID,918.121,VALID,0,VALID,91.0418,VALID,0.0339617,VALID,20.7063,VALID,147,VALID,0.788662,
2003-03-12, 00:56:00,VALID,918.114,VALID,0,VALID,91.0113,VALID,0.0339617,VALID,20.7098,VALID,157,VALID,0.568257,
2003-03-12, 00:57:00,VALID,918.1,VALID,0,VALID,90.9922,VALID,0.0169808,VALID,20.7055,VALID,162,VALID,1.04708,
2003-03-12, 00:58:00,VALID,918.075,VALID,0,VALID,90.9363,VALID,0.0509425,VALID,20.7023,VALID,162,VALID,0.82512,
2003-03-12, 00:59:00,VALID,918.047,VALID,0,VALID,91.0049,VALID,0,VALID,20.719,VALID,158,VALID,0.711538,
2003-03-12, 01:00:00,VALID,918.029,VALID,0,VALID,91.2567,VALID,0,VALID,20.7249,VALID,135,VALID,0.538446,
2003-03-12, 01:01:00,VALID,918.003,VALID,0,VALID,91.5492,VALID,0.0169808,VALID,20.7284,VALID,102,VALID,0.515008,
2003-03-12, 01:02:00,VALID,917.976,VALID,0,VALID,91.2542,VALID,0.0339617,VALID,20.7128,VALID,132,VALID,1.31342,
2003-03-12, 01:03:00,VALID,917.967,VALID,0,VALID,91.1601,VALID,0,VALID,20.6929,VALID,137,VALID,0.737305,
2003-03-12, 01:04:00,VALID,917.956,VALID,0,VALID,91.1651,VALID,0.0339617,VALID,20.6931,VALID,152,VALID,1.31044,
2003-03-12, 01:05:00,VALID,917.946,VALID,0,VALID,91.0685,VALID,0.0169808,VALID,20.6961,VALID,135,VALID,1.6773,
2003-03-12, 01:06:00,VALID,917.933,VALID,0,VALID,91.216,VALID,0.0169808,VALID,20.6894,VALID,136,VALID,0.936233,
2003-03-12, 01:07:00,VALID,917.936,VALID,0,VALID,91.2414,VALID,-0.0169808,VALID,20.6877,VALID,154,VALID,1.38848,
2003-03-12, 01:08:00,VALID,917.922,VALID,0,VALID,91.1232,VALID,-0.0339617,VALID,20.6882,VALID,149,VALID,1.62539,
2003-03-12, 01:09:00,VALID,917.91,VALID,0,VALID,91.2135,VALID,0,VALID,20.6775,VALID,156,VALID,1.20413,
2003-03-12, 01:10:00,VALID,917.895,VALID,0,VALID,91.2275,VALID,-0.0339617,VALID,20.6646,VALID,149,VALID,1.41113,
2003-03-12, 01:11:00,VALID,917.874,VALID,0,VALID,91.3114,VALID,-0.0849042,VALID,20.6554,VALID,163,VALID,1.13633,
2003-03-12, 01:12:00,VALID,917.883,VALID,0,VALID,91.3432,VALID,-0.0169808,VALID,20.6487,VALID,129,VALID,0.807644,
2003-03-12, 01:13:00,VALID,917.896,VALID,0,VALID,91.4169,VALID,-0.0849042,VALID,20.6355,VALID,142,VALID,0.804054,
2003-03-12, 01:14:00,VALID,917.9,VALID,0,VALID,91.3037,VALID,-0.0339617,VALID,20.646,VALID,136,VALID,1.32285,
2003-03-12, 01:15:00,VALID,917.911,VALID,0,VALID,91.2376,VALID,-0.0509425,VALID,20.6422,VALID,124,VALID,0.681027,
2003-03-12, 01:16:00,VALID,917.92,VALID,0,VALID,91.3254,VALID,-0.0339617,VALID,20.6592,VALID,125,VALID,0.858203,
2003-03-12, 01:17:00,VALID,917.929,VALID,0,VALID,91.3381,VALID,-0.0169808,VALID,20.6651,VALID,134,VALID,0.8127,
2003-03-12, 01:18:00,VALID,917.94,VALID,0,VALID,91.3559,VALID,-0.0339617,VALID,20.6691,VALID,136,VALID,0.965049,
2003-03-12, 01:19:00,VALID,917.923,VALID,0,VALID,91.4691,VALID,-0.0509425,VALID,20.6589,VALID,111,VALID,0.777549,
2003-03-12, 01:20:00,VALID,917.925,VALID,0,VALID,91.4436,VALID,-0.0509425,VALID,20.6524,VALID,93,VALID,0.813502,
2003-03-12, 01:21:00,VALID,917.917,VALID,0,VALID,91.3801,VALID,-0.0339617,VALID,20.636,VALID,108,VALID,1.46035,
2003-03-12, 01:22:00,VALID,917.918,VALID,0,VALID,91.3012,VALID,-0.0339617,VALID,20.6422,VALID,98,VALID,2.04033,
2003-03-12, 01:23:00,VALID,917.906,VALID,0,VALID,91.5161,VALID,0,VALID,20.6355,VALID,99,VALID,1.22216,
2003-03-12, 01:24:00,VALID,917.9,VALID,0,VALID,91.614,VALID,0,VALID,20.6096,VALID,112,VALID,1.08173,
2003-03-12, 01:25:00,VALID,917.883,VALID,0,VALID,91.6267,VALID,-0.0339617,VALID,20.6134,VALID,148,VALID,0.683488,
2003-03-12, 01:26:00,VALID,917.865,VALID,0,VALID,91.7577,VALID,-0.0509425,VALID,20.6107,VALID,137,VALID,0.793708,
2003-03-12, 01:27:00,VALID,917.871,VALID,0,VALID,91.7297,VALID,-0.0679233,VALID,20.6072,VALID,138,VALID,0.884766,
2003-03-12, 01:28:00,VALID,917.876,VALID,0,VALID,91.8734,VALID,-0.0339617,VALID,20.6104,VALID,142,VALID,0.682215,
2003-03-12, 01:29:00,VALID,917.866,VALID,0,VALID,91.9306,VALID,-0.0679233,VALID,20.598,VALID,104,VALID,0.503701,
2003-03-12, 01:30:00,VALID,917.882,VALID,0,VALID,91.9434,VALID,-0.0509425,VALID,20.5945,VALID,108,VALID,0.552484,
2003-03-12, 01:31:00,VALID,917.888,VALID,0,VALID,91.8073,VALID,-0.0339617,VALID,20.5781,VALID,108,VALID,0.888775,
2003-03-12, 01:32:00,VALID,917.884,VALID,0,VALID,91.6776,VALID,-0.0509425,VALID,20.5781,VALID,97,VALID,1.3493,
2003-03-12, 01:33:00,VALID,917.879,VALID,0,VALID,91.6242,VALID,-0.0339617,VALID,20.5903,VALID,104,VALID,1.12595,
2003-03-12, 01:34:00,VALID,917.872,VALID,0,VALID,91.6623,VALID,-0.0169808,VALID,20.6072,VALID,91,VALID,0.808694,
2003-03-12, 01:35:00,VALID,917.857,VALID,0,VALID,91.7895,VALID,-0.0509425,VALID,20.6034,VALID,80,VALID,0.743627,
2003-03-12, 01:36:00,VALID,917.841,VALID,0,VALID,91.8963,VALID,-0.0849042,VALID,20.5978,VALID,82,VALID,0.555489,
2003-03-12, 01:37:00,VALID,917.82,VALID,0,VALID,91.8124,VALID,-0.0509425,VALID,20.5744,VALID,101,VALID,1.00761,
2003-03-12, 01:38:00,VALID,917.805,VALID,0,VALID,91.8124,VALID,-0.0679233,VALID,20.5784,VALID,133,VALID,0.680889,
2003-03-12, 01:39:00,VALID,917.772,VALID,0,VALID,91.7933,VALID,-0.0339617,VALID,20.5813,VALID,114,VALID,0.82648,
2003-03-12, 01:40:00,VALID,917.748,VALID,0,VALID,91.8302,VALID,0,VALID,20.5948,VALID,136,VALID,0.61801,
2003-03-12, 01:41:00,VALID,917.74,VALID,0,VALID,91.8556,VALID,-0.101885,VALID,20.5778,VALID,133,VALID,0.842142,
2003-03-12, 01:42:00,VALID,917.749,VALID,0,VALID,91.9383,VALID,-0.0679233,VALID,20.5878,VALID,137,VALID,1.00781,
2003-03-12, 01:43:00,VALID,917.741,VALID,0,VALID,91.9116,VALID,-0.0849042,VALID,20.5711,VALID,146,VALID,1.04667,
2003-03-12, 01:44:00,VALID,917.752,VALID,0,VALID,91.8086,VALID,-0.101885,VALID,20.5916,VALID,151,VALID,1.35807,
2003-03-12, 01:45:00,VALID,917.759,VALID,0,VALID,91.6967,VALID,-0.0679233,VALID,20.5948,VALID,140,VALID,1.32432,
2003-03-12, 01:46:00,VALID,917.771,VALID,0,VALID,91.8836,VALID,-0.0339617,VALID,20.5873,VALID,138,VALID,1.01953,
2003-03-12, 01:47:00,VALID,917.774,VALID,0,VALID,91.9764,VALID,-0.0509425,VALID,20.6045,VALID,151,VALID,1.20156,
2003-03-12, 01:48:00,VALID,917.761,VALID,0,VALID,92.0972,VALID,-0.0849042,VALID,20.5711,VALID,154,VALID,1.59295,
2003-03-12, 01:49:00,VALID,917.758,VALID,0,VALID,92.185,VALID,-0.0509425,VALID,20.5592,VALID,155,VALID,1.95371,
2003-03-12, 01:50:00,VALID,917.731,VALID,0,VALID,92.4202,VALID,-0.0169808,VALID,20.5261,VALID,155,VALID,1.51621,
2003-03-12, 01:51:00,VALID,917.715,VALID,0,VALID,92.5995,VALID,-0.0169808,VALID,20.5,VALID,151,VALID,1.50591,
2003-03-12, 01:52:00,VALID,917.686,VALID,0,VALID,92.6733,VALID,0.0679233,VALID,20.4764,VALID,140,VALID,1.31757,
2003-03-12, 01:53:00,VALID,917.65,VALID,0,VALID,92.686,VALID,0.0339617,VALID,20.4538,VALID,146,VALID,1.58535,
2003-03-12, 01:54:00,VALID,917.645,VALID,0,VALID,92.7559,VALID,0.0509425,VALID,20.4505,VALID,155,VALID,1.10469,
2003-03-12, 01:55:00,VALID,917.648,VALID,0,VALID,92.7775,VALID,0.0509425,VALID,20.4508,VALID,147,VALID,1.68574,
2003-03-12, 01:56:00,VALID,917.65,VALID,0,VALID,92.7063,VALID,0.0679233,VALID,20.4441,VALID,157,VALID,1.54928,
2003-03-12, 01:57:00,VALID,917.645,VALID,0,VALID,92.8297,VALID,0.0509425,VALID,20.4538,VALID,156,VALID,1.13713,
2003-03-12, 01:58:00,VALID,917.646,VALID,0,VALID,92.8386,VALID,0.0679233,VALID,20.4573,VALID,146,VALID,1.1838,
2003-03-12, 01:59:00,VALID,917.65,VALID,0,VALID,92.9238,VALID,0.0339617,VALID,20.464,VALID,150,VALID,1.2508,
2003-03-12, 02:00:00,VALID,917.64,VALID,0,VALID,92.9619,VALID,0.0339617,VALID,20.4565,VALID,149,VALID,1.09824,
2003-03-12, 02:01:00,VALID,917.643,VALID,0,VALID,93.1705,VALID,0.0169808,VALID,20.454,VALID,122,VALID,0.727196,
2003-03-12, 02:02:00,VALID,917.634,VALID,0,VALID,93.0929,VALID,0.0169808,VALID,20.4573,VALID,152,VALID,1.31651,
2003-03-12, 02:03:00,VALID,917.628,VALID,0,VALID,92.9187,VALID,0.0849042,VALID,20.4505,VALID,152,VALID,1.01823,
2003-03-12, 02:04:00,VALID,917.632,VALID,0,VALID,92.9785,VALID,0.0509425,VALID,20.4766,VALID,139,VALID,0.84565,
2003-03-12, 02:05:00,VALID,917.632,VALID,0,VALID,92.9924,VALID,0.0339617,VALID,20.4791,VALID,135,VALID,0.571368,
2003-03-12, 02:06:00,VALID,917.629,VALID,0,VALID,92.8602,VALID,0.0339617,VALID,20.4896,VALID,132,VALID,0.836133,
2003-03-12, 02:07:00,VALID,917.625,VALID,0,VALID,92.8424,VALID,0.0169808,VALID,20.499,VALID,149,VALID,1.21576,
2003-03-12, 02:08:00,VALID,917.618,VALID,0,VALID,92.8348,VALID,0.0169808,VALID,20.5062,VALID,155,VALID,1.75966,
2003-03-12, 02:09:00,VALID,917.631,VALID,0,VALID,92.8958,VALID,0,VALID,20.509,VALID,149,VALID,1.85096,
2003-03-12, 02:10:00,VALID,917.634,VALID,0,VALID,92.9848,VALID,0,VALID,20.5119,VALID,145,VALID,1.40933,
2003-03-12, 02:11:00,VALID,917.641,VALID,0,VALID,93.0764,VALID,0.0169808,VALID,20.5122,VALID,141,VALID,1.31867,
2003-03-12, 02:12:00,VALID,917.651,VALID,0,VALID,93.2201,VALID,0.0169808,VALID,20.5022,VALID,149,VALID,1.20579,
2003-03-12, 02:13:00,VALID,917.657,VALID,0,VALID,93.2989,VALID,0,VALID,20.4925,VALID,143,VALID,1.36999,
2003-03-12, 02:14:00,VALID,917.676,VALID,0,VALID,93.365,VALID,0.0169808,VALID,20.4863,VALID,142,VALID,1.56641,
2003-03-12, 02:15:00,VALID,917.688,VALID,0,VALID,93.4629,VALID,0.0509425,VALID,20.4734,VALID,144,VALID,0.96895,
2003-03-12, 02:16:00,VALID,917.675,VALID,0,VALID,93.4617,VALID,0.0339617,VALID,20.4737,VALID,127,VALID,0.795272,
2003-03-12, 02:17:00,VALID,917.67,VALID,0,VALID,93.3688,VALID,0.0169808,VALID,20.4739,VALID,136,VALID,0.967949,
2003-03-12, 02:18:00,VALID,917.649,VALID,0,VALID,93.304,VALID,0,VALID,20.4766,VALID,125,VALID,0.877878,
2003-03-12, 02:19:00,VALID,917.636,VALID,0,VALID,93.0802,VALID,0.0509425,VALID,20.4836,VALID,143,VALID,1.08594,
2003-03-12, 02:20:00,VALID,917.609,VALID,0,VALID,92.9174,VALID,0.0509425,VALID,20.4931,VALID,146,VALID,1.46783,
2003-03-12, 02:21:00,VALID,917.612,VALID,0,VALID,92.6516,VALID,0.0339617,VALID,20.5256,VALID,152,VALID,1.21152,
2003-03-12, 02:22:00,VALID,917.605,VALID,0,VALID,92.7127,VALID,0,VALID,20.5582,VALID,127,VALID,0.434005,
2003-03-12, 02:23:00,VALID,917.598,VALID,0,VALID,92.7012,VALID,0.0169808,VALID,20.5803,VALID,148,VALID,0.887153,
2003-03-12, 02:24:00,VALID,917.574,VALID,0,VALID,92.7941,VALID,0.0169808,VALID,20.587,VALID,118,VALID,0.50359,
2003-03-12, 02:25:00,VALID,917.568,VALID,0,VALID,92.8042,VALID,0.0509425,VALID,20.5736,VALID,149,VALID,1.38633,
2003-03-12, 02:26:00,VALID,917.519,VALID,0,VALID,92.6962,VALID,0,VALID,20.5612,VALID,148,VALID,1.3082,
2003-03-12, 02:27:00,VALID,917.476,VALID,0,VALID,92.7063,VALID,0.0509425,VALID,20.5674,VALID,130,VALID,0.670072,
2003-03-12, 02:28:00,VALID,917.456,VALID,0,VALID,92.4139,VALID,0.0169808,VALID,20.5607,VALID,154,VALID,1.51621,
2003-03-12, 02:29:00,VALID,917.432,VALID,0,VALID,92.2969,VALID,0.0679233,VALID,20.587,VALID,130,VALID,1.2752,
2003-03-12, 02:30:00,VALID,917.426,VALID,0,VALID,92.3744,VALID,0.0169808,VALID,20.6062,VALID,150,VALID,1.17124,
2003-03-12, 02:31:00,VALID,917.418,VALID,0,VALID,92.3617,VALID,0.0509425,VALID,20.6029,VALID,137,VALID,1.20144,
2003-03-12, 02:32:00,VALID,917.392,VALID,0,VALID,92.4278,VALID,0.0339617,VALID,20.5962,VALID,134,VALID,0.982227,
2003-03-12, 02:33:00,VALID,917.393,VALID,0,VALID,92.3134,VALID,0.0169808,VALID,20.593,VALID,136,VALID,0.99308,
2003-03-12, 02:34:00,VALID,917.389,VALID,0,VALID,92.2892,VALID,0.0169808,VALID,20.5927,VALID,146,VALID,1.55488,
2003-03-12, 02:35:00,VALID,917.386,VALID,0,VALID,92.1532,VALID,0.0679233,VALID,20.6029,VALID,148,VALID,1.52183,
2003-03-12, 02:36:00,VALID,917.378,VALID,0,VALID,92.2028,VALID,0.0509425,VALID,20.6059,VALID,145,VALID,1.0331,
2003-03-12, 02:37:00,VALID,917.372,VALID,0,VALID,92.3007,VALID,-0.0169808,VALID,20.6231,VALID,132,VALID,0.596217,
2003-03-12, 02:38:00,VALID,917.365,VALID,0,VALID,92.1723,VALID,-0.0679233,VALID,20.6134,VALID,149,VALID,1.35817,
2003-03-12, 02:39:00,VALID,917.357,VALID,0,VALID,91.9955,VALID,-0.0339617,VALID,20.6164,VALID,152,VALID,1.53203,
2003-03-12, 02:40:00,VALID,917.352,VALID,0,VALID,91.7768,VALID,-0.0169808,VALID,20.6298,VALID,149,VALID,2.05595,
2003-03-12, 02:41:00,VALID,917.332,VALID,0,VALID,91.7615,VALID,-0.0509425,VALID,20.6726,VALID,84,VALID,1.43249,
2003-03-12, 02:42:00,VALID,917.315,VALID,0,VALID,91.9205,VALID,-0.0679233,VALID,20.6818,VALID,78,VALID,0.523638,
2003-03-12, 02:43:00,VALID,917.29,VALID,0,VALID,91.9904,VALID,-0.0339617,VALID,20.6691,VALID,60,VALID,0.758024,
2003-03-12, 02:44:00,VALID,917.266,VALID,0,VALID,91.8683,VALID,-0.0679233,VALID,20.6495,VALID,90,VALID,1.24683,
2003-03-12, 02:45:00,VALID,917.233,VALID,0,VALID,91.1931,VALID,-0.0679233,VALID,20.6433,VALID,82,VALID,1.02539,
2003-03-12, 02:46:00,VALID,917.219,VALID,0,VALID,91.2631,VALID,-0.0339617,VALID,20.682,VALID,72,VALID,1.47449,
2003-03-12, 02:47:00,VALID,917.182,VALID,0,VALID,91.2643,VALID,-0.0339617,VALID,20.6942,VALID,87,VALID,1.29811,
2003-03-12, 02:48:00,VALID,917.173,VALID,0,VALID,91.3406,VALID,-0.0679233,VALID,20.7012,VALID,65,VALID,0.71254,
2003-03-12, 02:49:00,VALID,917.172,VALID,0,VALID,91.4525,VALID,-0.0679233,VALID,20.7076,VALID,48,VALID,0.800987,
2003-03-12, 02:50:00,VALID,917.162,VALID,0,VALID,91.3597,VALID,-0.101885,VALID,20.7079,VALID,67,VALID,1.07093,
2003-03-12, 02:51:00,VALID,917.15,VALID,0,VALID,91.3839,VALID,-0.0509425,VALID,20.6942,VALID,76,VALID,1.20675,
2003-03-12, 02:52:00,VALID,917.161,VALID,0,VALID,91.3317,VALID,-0.101885,VALID,20.6751,VALID,87,VALID,1.41146,
2003-03-12, 02:53:00,VALID,917.149,VALID,0,VALID,91.2923,VALID,-0.0169808,VALID,20.6549,VALID,83,VALID,1.66961,
2003-03-12, 02:54:00,VALID,917.141,VALID,0,VALID,91.4424,VALID,-0.0509425,VALID,20.6651,VALID,88,VALID,1.04006,
2003-03-12, 02:55:00,VALID,917.139,VALID,0,VALID,91.3648,VALID,-0.0509425,VALID,20.6557,VALID,95,VALID,0.858173,
2003-03-12, 02:56:00,VALID,917.114,VALID,0,VALID,91.3966,VALID,-0.0849042,VALID,20.6689,VALID,90,VALID,0.447316,
2003-03-12, 02:57:00,VALID,917.125,VALID,0,VALID,91.3737,VALID,-0.0339617,VALID,20.6559,VALID,96,VALID,0.665913,
2003-03-12, 02:58:00,VALID,917.132,VALID,0,VALID,91.4284,VALID,-0.0509425,VALID,20.6524,VALID,125,VALID,0.677015,
2003-03-12, 02:59:00,VALID,917.139,VALID,0,VALID,91.4551,VALID,-0.0679233,VALID,20.6557,VALID,137,VALID,0.595588,
2003-03-12, 03:00:00,VALID,917.163,VALID,0,VALID,91.4284,VALID,-0.0849042,VALID,20.6457,VALID,126,VALID,0.581641,
2003-03-12, 03:01:00,VALID,917.166,VALID,0,VALID,91.4614,VALID,-0.0509425,VALID,20.639,VALID,146,VALID,0.847862,
2003-03-12, 03:02:00,VALID,917.182,VALID,0,VALID,91.3419,VALID,-0.0679233,VALID,20.6524,VALID,149,VALID,1.29796,
2003-03-12, 03:03:00,VALID,917.185,VALID,0,VALID,91.3762,VALID,-0.0679233,VALID,20.636,VALID,157,VALID,1.48121,
2003-03-12, 03:04:00,VALID,917.178,VALID,0,VALID,91.4029,VALID,-0.0679233,VALID,20.6524,VALID,145,VALID,0.995703,
2003-03-12, 03:05:00,VALID,917.159,VALID,0,VALID,91.5517,VALID,-0.0509425,VALID,20.6592,VALID,150,VALID,0.688672,
2003-03-12, 03:06:00,VALID,917.153,VALID,0,VALID,91.656,VALID,-0.0679233,VALID,20.6462,VALID,164,VALID,0.380208,
2003-03-12, 03:07:00,VALID,917.123,VALID,0,VALID,91.7463,VALID,-0.0849042,VALID,20.6166,VALID,162,VALID,0.227734,
2003-03-12, 03:08:00,VALID,917.088,VALID,0,VALID,91.8582,VALID,-0.0339617,VALID,20.6209,VALID,139,VALID,0.45918,
2003-03-12, 03:09:00,VALID,917.062,VALID,0,VALID,91.9179,VALID,-0.0509425,VALID,20.5848,VALID,139,VALID,0.455659,
2003-03-12, 03:10:00,VALID,917.011,VALID,0,VALID,92.0337,VALID,-0.0679233,VALID,20.559,VALID,158,VALID,0.4898,
2003-03-12, 03:11:00,VALID,917.011,VALID,0,VALID,92.026,VALID,-0.101885,VALID,20.5495,VALID,136,VALID,0.42832,
2003-03-12, 03:12:00,VALID,916.998,VALID,0,VALID,92.0883,VALID,-0.0849042,VALID,20.5296,VALID,131,VALID,0.00982143,
2003-03-12, 03:13:00,VALID,916.992,VALID,0,VALID,92.1583,VALID,-0.0679233,VALID,20.5267,VALID,160,VALID,0.418164,
2003-03-12, 03:14:00,VALID,916.993,VALID,0,VALID,92.1964,VALID,-0.0509425,VALID,20.5269,VALID,136,VALID,0.454327,
2003-03-12, 03:15:00,VALID,916.986,VALID,0,VALID,92.2142,VALID,-0.0849042,VALID,20.5272,VALID,132,VALID,0.632607,
2003-03-12, 03:16:00,VALID,917.018,VALID,0,VALID,92.1595,VALID,-0.101885,VALID,20.5073,VALID,96,VALID,0.250206,
2003-03-12, 03:17:00,VALID,916.999,VALID,0,VALID,92.1951,VALID,-0.0849042,VALID,20.5043,VALID,144,VALID,0.30609,
2003-03-12, 03:18:00,VALID,917.001,VALID,0,VALID,92.2702,VALID,-0.101885,VALID,20.4973,VALID,149,VALID,0.00234375,
2003-03-12, 03:19:00,VALID,916.995,VALID,0,VALID,92.3516,VALID,-0.0509425,VALID,20.504,VALID,149,VALID,0.00190034,
2003-03-12, 03:20:00,VALID,916.976,VALID,0,VALID,92.4062,VALID,-0.0849042,VALID,20.4814,VALID,149,VALID,0.03125,
2003-03-12, 03:21:00,VALID,916.966,VALID,0,VALID,92.4711,VALID,-0.0679233,VALID,20.4752,VALID,149,VALID,0.0602965,
2003-03-12, 03:22:00,VALID,916.948,VALID,0,VALID,92.5792,VALID,0.0169808,VALID,20.4578,VALID,149,VALID,0.0760135,
2003-03-12, 03:23:00,VALID,916.933,VALID,0,VALID,92.7508,VALID,0,VALID,20.4642,VALID,149,VALID,0,
2003-03-12, 03:24:00,VALID,916.937,VALID,0,VALID,92.8373,VALID,0,VALID,20.4384,VALID,177,VALID,0.159766,
2003-03-12, 03:25:00,VALID,916.923,VALID,0,VALID,92.9696,VALID,0,VALID,20.3931,VALID,234,VALID,0.271829,
2003-03-12, 03:26:00,VALID,916.919,VALID,0,VALID,93.1743,VALID,0,VALID,20.3409,VALID,234,VALID,0.363076,
2003-03-12, 03:27:00,VALID,916.935,VALID,0,VALID,93.5761,VALID,0,VALID,20.3158,VALID,296,VALID,0.384816,
2003-03-12, 03:28:00,VALID,916.951,VALID,0,VALID,93.8126,VALID,0,VALID,20.28,VALID,298,VALID,0.244655,
2003-03-12, 03:29:00,VALID,916.969,VALID,0,VALID,93.9716,VALID,0.0169808,VALID,20.2706,VALID,298,VALID,0.180715,
2003-03-12, 03:30:00,VALID,916.989,VALID,0,VALID,94.1115,VALID,0.0169808,VALID,20.248,VALID,298,VALID,0.0838415,
2003-03-12, 03:31:00,VALID,916.981,VALID,0,VALID,94.2729,VALID,0.0339617,VALID,20.2283,VALID,298,VALID,0,
2003-03-12, 03:32:00,VALID,916.987,VALID,0,VALID,94.4014,VALID,0.0339617,VALID,20.192,VALID,298,VALID,0,
2003-03-12, 03:33:00,VALID,916.96,VALID,0,VALID,94.512,VALID,0.0679233,VALID,20.1928,VALID,291,VALID,0.148838,
2003-03-12, 03:34:00,VALID,916.951,VALID,0,VALID,94.5565,VALID,0.0169808,VALID,20.1702,VALID,167,VALID,0.454928,